Location: Bijele Vode
(45.2833°N, 16.2000°E)
Time: 15:27:52
(UTC+00:00)

XW-2D - Visible Passes

Search period start: 03 December 2021 00:00
Search period end: 13 December 2021 00:00
Orbit: 504 x 521 km, 97.5° (Epoch: 03 December)

Date Brightness Start Highest point End Pass type
(mag) Time Alt. Az. Time Alt. Az. Time Alt. Az.
03 Dec ? 04:32:35 10° NNE 04:36:11 38° E 04:39:45 10° SSE visible
03 Dec ? 16:48:37 10° SSW 16:51:44 25° W 16:54:53 10° NW visible
04 Dec ? 04:17:12 10° NE 04:20:25 26° E 04:23:38 10° SSE visible
04 Dec ? 16:32:29 10° SSW 16:35:58 37° W 16:39:31 10° NNW visible
05 Dec ? 04:02:02 10° NE 04:04:37 17° E 04:07:13 10° SE visible
05 Dec ? 05:35:14 10° N 05:38:45 36° WNW 05:42:16 10° SW visible
05 Dec ? 16:16:33 10° S 16:20:14 59° W 16:23:59 10° NNW visible
06 Dec ? 03:47:23 10° ENE 03:48:46 12° E 03:50:11 10° ESE visible
06 Dec ? 05:19:23 10° N 05:23:08 56° WNW 05:26:51 10° SSW visible
06 Dec ? 16:00:48 10° SSE 16:04:31 88° ENE 16:08:19 10° NNW visible
07 Dec ? 05:03:38 10° NNE 05:07:27 87° WNW 05:11:15 10° SSW visible
07 Dec ? 15:45:11 10° SSE 15:48:51 56° ENE 15:52:34 10° N visible
07 Dec ? 17:21:58 10° WSW 17:23:13 11° W 17:24:28 10° WNW visible
08 Dec ? 04:47:58 10° NNE 04:51:45 60° E 04:55:30 10° S visible
08 Dec ? 17:04:50 10° SW 17:07:21 17° W 17:09:54 10° NW visible
09 Dec ? 04:32:24 10° NNE 04:35:59 38° E 04:39:33 10° SSE visible
09 Dec ? 16:48:23 10° SSW 16:51:31 25° W 16:54:42 10° NW visible
10 Dec ? 04:16:59 10° NE 04:20:12 25° E 04:23:24 10° SSE visible
10 Dec ? 16:32:13 10° SSW 16:35:44 38° W 16:39:17 10° NNW visible
11 Dec ? 04:01:47 10° NE 04:04:23 17° E 04:06:56 10° SE visible
11 Dec ? 05:34:58 10° N 05:38:31 37° WNW 05:42:01 10° SW visible
11 Dec ? 16:16:16 10° S 16:19:58 60° W 16:23:43 10° NNW visible
12 Dec ? 03:47:09 10° ENE 03:48:30 12° E 03:49:50 10° ESE visible
12 Dec ? 05:19:06 10° N 05:22:51 57° WNW 05:26:34 10° SSW visible
12 Dec ? 16:00:29 10° SSE 16:04:14 87° ENE 16:08:02 10° NNW visible
